Time,TemperatureF,DewpointF,PressureIn,WindDirection,WindDirectionDegrees,WindSpeedMPH,WindSpeedGustMPH,Humidity,HourlyPrecipIn,Conditions,Clouds,dailyrainin,SoftwareType,DateUTC
2015-05-03 00:00:00,63.0,54.9,29.86,SSE,151,2.0,6.0,75,0.00,CLR,,0.00,WeatherDisplay:10.37,2015-05-03 05:00:00,
2015-05-03 00:09:00,63.1,54.7,29.86,SSE,160,5.0,7.0,74,0.00,OVC,,0.00,WeatherDisplay:10.37,2015-05-03 05:09:00,
2015-05-03 00:14:00,63.2,54.8,29.86,SSE,155,3.0,6.0,74,0.00,OVC,,0.00,WeatherDisplay:10.37,2015-05-03 05:14:00,
2015-05-03 00:20:00,63.3,54.9,29.86,SSE,155,3.0,8.0,74,0.00,OVC,,0.00,WeatherDisplay:10.37,2015-05-03 05:20:00,
2015-05-03 00:30:00,63.4,55.0,29.86,SSE,156,5.0,7.0,74,0.00,OVC,,0.00,WeatherDisplay:10.37,2015-05-03 05:30:00,
2015-05-03 00:40:00,63.4,54.9,29.86,SSE,159,3.0,7.0,74,0.00,OVC,,0.00,WeatherDisplay:10.37,2015-05-03 05:40:00,
2015-05-03 00:50:00,63.4,55.0,29.86,SSE,158,2.0,5.0,74,0.00,OVC,,0.00,WeatherDisplay:10.37,2015-05-03 05:50:00,
2015-05-03 00:55:00,63.4,55.0,29.87,SSE,156,3.0,6.0,74,0.00,OVC,,0.00,WeatherDisplay:10.37,2015-05-03 05:55:00,
2015-05-03 01:00:00,63.4,55.0,29.86,SSE,159,2.0,5.0,74,0.00,OVC,,0.00,WeatherDisplay:10.37,2015-05-03 06:00:00,
2015-05-03 01:10:00,63.4,54.9,29.87,SSE,160,1.0,6.0,74,0.00,OVC,,0.00,WeatherDisplay:10.37,2015-05-03 06:10:00,
2015-05-03 01:15:00,63.3,54.9,29.87,SSE,159,2.0,5.0,74,0.00,OVC,,0.00,WeatherDisplay:10.37,2015-05-03 06:15:00,
2015-05-03 01:20:00,63.3,54.9,29.87,SSE,159,3.0,6.0,74,0.00,OVC,,0.00,WeatherDisplay:10.37,2015-05-03 06:20:00,
2015-05-03 01:30:00,63.3,54.9,29.87,SSE,159,2.0,5.0,74,0.00,OVC,,0.00,WeatherDisplay:10.37,2015-05-03 06:30:00,
2015-05-03 01:40:00,63.2,54.8,29.87,SSE,161,2.0,6.0,74,0.00,OVC,,0.00,WeatherDisplay:10.37,2015-05-03 06:40:00,
2015-05-03 01:45:00,63.2,54.8,29.86,SSE,163,2.0,5.0,74,0.00,OVC,,0.00,WeatherDisplay:10.37,2015-05-03 06:45:00,
2015-05-03 01:50:00,63.1,54.7,29.86,SSE,163,3.0,5.0,74,0.00,OVC,,0.00,WeatherDisplay:10.37,2015-05-03 06:50:00,
2015-05-03 02:00:00,63.1,54.6,29.86,SSE,164,3.0,6.0,74,0.00,OVC,,0.00,WeatherDisplay:10.37,2015-05-03 07:00:00,
2015-05-03 02:05:00,63.0,54.6,29.85,SSE,168,3.0,7.0,74,0.00,OVC,,0.00,WeatherDisplay:10.37,2015-05-03 07:05:00,
2015-05-03 02:10:00,63.0,54.6,29.85,South,172,2.0,8.0,74,0.00,OVC,,0.00,WeatherDisplay:10.37,2015-05-03 07:10:00,
2015-05-03 02:20:00,63.1,54.7,29.85,South,173,2.0,6.0,74,0.00,OVC,,0.00,WeatherDisplay:10.37,2015-05-03 07:20:00,
2015-05-03 02:25:00,63.2,54.8,29.85,South,174,3.0,9.0,74,0.00,OVC,,0.00,WeatherDisplay:10.37,2015-05-03 07:25:00,
2015-05-03 02:30:00,63.3,54.9,29.84,South,173,3.0,9.0,74,0.00,OVC,,0.00,WeatherDisplay:10.37,2015-05-03 07:30:00,
2015-05-03 02:40:00,63.4,54.6,29.84,South,172,2.0,7.0,73,0.00,OVC,,0.00,WeatherDisplay:10.37,2015-05-03 07:40:00,
2015-05-03 02:50:00,63.5,54.7,29.84,SSE,166,3.0,7.0,73,0.00,OVC,,0.00,WeatherDisplay:10.37,2015-05-03 07:50:00,
2015-05-03 02:55:00,63.6,54.4,29.84,South,175,5.0,10.0,72,0.00,OVC,,0.00,WeatherDisplay:10.37,2015-05-03 07:55:00,
2015-05-03 03:00:00,63.8,54.6,29.84,South,170,5.0,10.0,72,0.00,OVC,,0.00,WeatherDisplay:10.37,2015-05-03 08:00:00,
2015-05-03 03:10:00,64.0,54.8,29.84,South,169,5.0,7.0,72,0.00,OVC,,0.00,WeatherDisplay:10.37,2015-05-03 08:10:00,
2015-05-03 03:20:00,63.9,54.7,29.84,SSE,167,3.0,8.0,72,0.00,OVC,,0.00,WeatherDisplay:10.37,2015-05-03 08:20:00,
2015-05-03 03:25:00,64.0,54.8,29.83,South,170,3.0,8.0,72,0.00,OVC,,0.00,WeatherDisplay:10.37,2015-05-03 08:25:00,
2015-05-03 03:30:00,64.0,54.8,29.84,South,175,3.0,7.0,72,0.00,OVC,,0.00,WeatherDisplay:10.37,2015-05-03 08:30:00,
2015-05-03 03:40:00,63.8,54.6,29.84,South,175,3.0,6.0,72,0.00,OVC,,0.00,WeatherDisplay:10.37,2015-05-03 08:40:00,
2015-05-03 03:45:00,63.8,54.6,29.84,South,174,5.0,9.0,72,0.00,OVC,,0.00,WeatherDisplay:10.37,2015-05-03 08:45:00,
2015-05-03 03:50:00,63.9,54.7,29.84,South,176,3.0,7.0,72,0.00,OVC,,0.00,WeatherDisplay:10.37,2015-05-03 08:50:00,
2015-05-03 03:55:00,64.2,55.0,29.85,South,182,3.0,13.0,72,0.00,OVC,,0.00,WeatherDisplay:10.37,2015-05-03 08:55:00,
2015-05-03 04:00:00,64.5,54.9,29.85,South,180,5.0,8.0,71,0.00,OVC,,0.00,WeatherDisplay:10.37,2015-05-03 09:00:00,
2015-05-03 04:05:00,64.6,55.0,29.85,South,176,5.0,9.0,71,0.00,OVC,,0.00,WeatherDisplay:10.37,2015-05-03 09:05:00,
2015-05-03 04:10:00,65.0,55.3,29.85,South,182,6.0,12.0,71,0.00,OVC,,0.00,WeatherDisplay:10.37,2015-05-03 09:10:00,
2015-05-03 04:15:00,65.3,55.3,29.85,South,187,7.0,12.0,70,0.00,OVC,,0.00,WeatherDisplay:10.37,2015-05-03 09:15:00,
2015-05-03 04:20:00,65.7,55.2,29.85,South,190,6.0,12.0,69,0.00,OVC,,0.00,WeatherDisplay:10.37,2015-05-03 09:20:00,
2015-05-03 04:30:00,65.9,55.4,29.85,South,183,7.0,12.0,69,0.00,OVC,,0.00,WeatherDisplay:10.37,2015-05-03 09:30:00,
2015-05-03 04:35:00,66.0,55.5,29.84,South,184,9.0,20.0,69,0.00,OVC,,0.00,WeatherDisplay:10.37,2015-05-03 09:35:00,
2015-05-03 04:40:00,66.1,55.6,29.84,South,183,8.0,20.0,69,0.00,OVC,,0.00,WeatherDisplay:10.37,2015-05-03 09:40:00,
2015-05-03 04:50:00,66.0,55.5,29.84,South,187,7.0,18.0,69,0.00,OVC,,0.00,WeatherDisplay:10.37,2015-05-03 09:50:00,
2015-05-03 05:00:00,65.8,55.3,29.83,South,185,9.0,17.0,69,0.00,OVC,,0.00,WeatherDisplay:10.37,2015-05-03 10:00:00,
2015-05-03 05:10:00,65.6,55.1,29.83,South,185,8.0,17.0,69,0.00,OVC,,0.00,WeatherDisplay:10.37,2015-05-03 10:10:00,
2015-05-03 05:20:00,65.3,55.3,29.83,South,185,8.0,17.0,70,0.00,OVC,,0.00,WeatherDisplay:10.37,2015-05-03 10:20:00,
2015-05-03 05:30:00,65.3,55.3,29.84,SSW,196,6.0,15.0,70,0.00,OVC,,0.00,WeatherDisplay:10.37,2015-05-03 10:30:00,
2015-05-03 05:35:00,65.3,55.3,29.85,SSW,208,7.0,14.0,70,0.00,OVC,,0.00,WeatherDisplay:10.37,2015-05-03 10:35:00,
2015-05-03 05:40:00,65.4,55.4,29.84,SSW,207,7.0,17.0,70,0.00,OVC,,0.00,WeatherDisplay:10.37,2015-05-03 10:40:00,
2015-05-03 05:50:00,65.0,55.0,29.84,SSW,199,5.0,9.0,70,0.00,OVC,,0.00,WeatherDisplay:10.37,2015-05-03 10:50:00,
2015-05-03 05:55:00,64.8,55.2,29.84,SSW,198,6.0,12.0,71,0.00,OVC,,0.00,WeatherDisplay:10.37,2015-05-03 10:55:00,
2015-05-03 06:00:00,64.6,55.0,29.84,SSW,196,2.0,7.0,71,0.00,OVC,,0.00,WeatherDisplay:10.37,2015-05-03 11:00:00,
2015-05-03 06:05:00,64.5,54.9,29.84,SSW,202,3.0,6.0,71,0.00,OVC,,0.00,WeatherDisplay:10.37,2015-05-03 11:05:00,
2015-05-03 06:10:00,64.4,55.2,29.83,SSW,200,3.0,7.0,72,0.00,OVC,,0.00,WeatherDisplay:10.37,2015-05-03 11:10:00,
2015-05-03 06:20:00,64.2,55.0,29.83,South,189,5.0,9.0,72,0.00,OVC,,0.00,WeatherDisplay:10.37,2015-05-03 11:20:00,
2015-05-03 06:30:00,64.1,55.3,29.83,South,182,3.0,7.0,73,0.00,OVC,,0.00,WeatherDisplay:10.37,2015-05-03 11:30:00,
2015-05-03 06:35:00,64.0,55.2,29.83,South,174,2.0,9.0,73,0.00,OVC,,0.00,WeatherDisplay:10.37,2015-05-03 11:35:00,
2015-05-03 06:40:00,63.9,55.1,29.83,South,177,1.0,7.0,73,0.00,OVC,,0.00,WeatherDisplay:10.37,2015-05-03 11:40:00,
2015-05-03 06:50:00,64.1,55.7,29.82,South,182,5.0,10.0,74,0.00,OVC,,0.00,WeatherDisplay:10.37,2015-05-03 11:50:00,
2015-05-03 07:00:00,64.4,55.6,29.83,South,189,5.0,9.0,73,0.00,OVC,,0.00,WeatherDisplay:10.37,2015-05-03 12:00:00,
2015-05-03 07:05:00,64.5,55.7,29.83,South,188,5.0,9.0,73,0.00,-RA,,0.00,WeatherDisplay:10.37,2015-05-03 12:05:00,
2015-05-03 07:10:00,64.6,55.7,29.83,South,190,3.0,7.0,73,0.00,-RA,,0.00,WeatherDisplay:10.37,2015-05-03 12:10:00,
2015-05-03 07:20:00,64.5,55.7,29.82,South,174,3.0,8.0,73,0.00,-RA,,0.00,WeatherDisplay:10.37,2015-05-03 12:20:00,
2015-05-03 07:25:00,64.5,56.0,29.82,South,172,5.0,12.0,74,0.00,-RA,,0.00,WeatherDisplay:10.37,2015-05-03 12:25:00,
2015-05-03 07:30:00,64.6,56.1,29.83,South,185,3.0,9.0,74,0.00,-RA,,0.00,WeatherDisplay:10.37,2015-05-03 12:30:00,
2015-05-03 07:40:00,64.7,56.2,29.83,SSW,210,5.0,7.0,74,0.00,-RA,,0.00,WeatherDisplay:10.37,2015-05-03 12:40:00,
2015-05-03 07:50:00,65.0,56.5,29.84,SSW,213,3.0,9.0,74,0.00,-RA,,0.00,WeatherDisplay:10.37,2015-05-03 12:50:00,
2015-05-03 07:55:00,65.1,56.6,29.84,SSW,194,5.0,9.0,74,0.00,-RA,,0.00,WeatherDisplay:10.37,2015-05-03 12:55:00,
2015-05-03 08:00:00,65.4,56.9,29.83,South,190,5.0,8.0,74,0.00,-RA,,0.00,WeatherDisplay:10.37,2015-05-03 13:00:00,
2015-05-03 08:05:00,65.6,56.7,29.83,South,191,5.0,10.0,73,0.00,BKN,,0.00,WeatherDisplay:10.37,2015-05-03 13:05:00,
2015-05-03 08:10:00,65.8,56.9,29.84,SSW,194,7.0,10.0,73,0.00,BKN,,0.00,WeatherDisplay:10.37,2015-05-03 13:10:00,
2015-05-03 08:20:00,66.2,57.3,29.84,SSW,196,6.0,12.0,73,0.00,BKN,,0.00,WeatherDisplay:10.37,2015-05-03 13:20:00,
2015-05-03 08:30:00,66.7,57.4,29.84,SSW,199,7.0,12.0,72,0.00,BKN,,0.00,WeatherDisplay:10.37,2015-05-03 13:30:00,
2015-05-03 08:35:00,67.1,57.4,29.84,SSW,207,6.0,12.0,71,0.00,BKN,,0.00,WeatherDisplay:10.37,2015-05-03 13:35:00,
2015-05-03 08:40:00,67.5,58.2,29.84,SSW,204,7.0,13.0,72,0.00,BKN,,0.00,WeatherDisplay:10.37,2015-05-03 13:40:00,
2015-05-03 08:45:00,67.9,57.8,29.84,SSW,202,8.0,13.0,70,0.00,BKN,,0.00,WeatherDisplay:10.37,2015-05-03 13:45:00,
2015-05-03 08:50:00,68.3,58.1,29.84,SSW,199,8.0,18.0,70,0.00,BKN,,0.00,WeatherDisplay:10.37,2015-05-03 13:50:00,
2015-05-03 09:00:00,68.7,57.7,29.83,SSW,195,9.0,20.0,68,0.00,BKN,,0.00,WeatherDisplay:10.37,2015-05-03 14:00:00,
2015-05-03 09:05:00,68.8,57.8,29.84,SSW,202,9.0,20.0,68,0.00,BKN,,0.00,WeatherDisplay:10.37,2015-05-03 14:05:00,
2015-05-03 09:10:00,68.8,57.4,29.84,SSW,207,13.0,20.0,67,0.00,BKN,,0.00,WeatherDisplay:10.37,2015-05-03 14:10:00,
2015-05-03 09:15:00,68.7,57.8,29.84,SSW,209,10.0,21.0,68,0.00,BKN,,0.00,WeatherDisplay:10.37,2015-05-03 14:15:00,
2015-05-03 09:20:00,69.0,58.4,29.83,SSW,204,7.0,18.0,69,0.00,BKN,,0.00,WeatherDisplay:10.37,2015-05-03 14:20:00,
2015-05-03 09:25:00,69.4,58.0,29.83,SSW,201,8.0,20.0,67,0.00,BKN,,0.00,WeatherDisplay:10.37,2015-05-03 14:25:00,
2015-05-03 09:30:00,69.3,57.5,29.84,SSW,199,10.0,17.0,66,0.00,BKN,,0.00,WeatherDisplay:10.37,2015-05-03 14:30:00,
2015-05-03 09:35:00,69.0,57.6,29.84,SSW,204,10.0,18.0,67,0.00,BKN,,0.00,WeatherDisplay:10.37,2015-05-03 14:35:00,
2015-05-03 09:40:00,69.2,57.4,29.84,SSW,205,10.0,20.0,66,0.00,BKN,,0.00,WeatherDisplay:10.37,2015-05-03 14:40:00,
2015-05-03 09:50:00,70.0,58.5,29.83,SSW,197,7.0,20.0,67,0.00,BKN,,0.00,WeatherDisplay:10.37,2015-05-03 14:50:00,
2015-05-03 09:55:00,70.5,58.1,29.83,SSW,198,10.0,21.0,65,0.00,BKN,,0.00,WeatherDisplay:10.37,2015-05-03 14:55:00,
2015-05-03 10:00:00,70.8,58.4,29.83,SSW,195,9.0,20.0,65,0.00,BKN,,0.00,WeatherDisplay:10.37,2015-05-03 15:00:00,
2015-05-03 10:05:00,71.0,58.6,29.83,SSW,196,10.0,20.0,65,0.00,SCT,,0.00,WeatherDisplay:10.37,2015-05-03 15:05:00,
2015-05-03 10:10:00,71.2,58.0,29.83,SSW,195,9.0,20.0,63,0.00,SCT,,0.00,WeatherDisplay:10.37,2015-05-03 15:10:00,
2015-05-03 10:15:00,71.5,58.3,29.83,SSW,193,9.0,18.0,63,0.00,SCT,,0.00,WeatherDisplay:10.37,2015-05-03 15:15:00,
2015-05-03 10:20:00,71.9,58.2,29.83,SSW,197,9.0,23.0,62,0.00,SCT,,0.00,WeatherDisplay:10.37,2015-05-03 15:20:00,
2015-05-03 10:30:00,72.6,59.3,29.83,South,189,10.0,21.0,63,0.00,SCT,,0.00,WeatherDisplay:10.37,2015-05-03 15:30:00,
2015-05-03 10:40:00,73.1,59.3,29.83,SSW,195,12.0,18.0,62,0.00,SCT,,0.00,WeatherDisplay:10.37,2015-05-03 15:40:00,
2015-05-03 10:50:00,73.1,59.8,29.83,SSW,198,7.0,18.0,63,0.00,SCT,,0.00,WeatherDisplay:10.37,2015-05-03 15:50:00,
2015-05-03 10:55:00,73.4,58.7,29.82,SSW,196,13.0,23.0,60,0.00,SCT,,0.00,WeatherDisplay:10.37,2015-05-03 15:55:00,
2015-05-03 11:00:00,73.0,58.8,29.82,SSW,194,8.0,24.0,61,0.00,SCT,,0.00,WeatherDisplay:10.37,2015-05-03 16:00:00,
2015-05-03 11:10:00,74.1,59.8,29.82,SSW,197,9.0,20.0,61,0.00,SCT,,0.00,WeatherDisplay:10.37,2015-05-03 16:10:00,
2015-05-03 11:20:00,75.1,59.3,29.82,SSW,195,12.0,18.0,58,0.00,SCT,,0.00,WeatherDisplay:10.37,2015-05-03 16:20:00,
2015-05-03 11:25:00,75.1,59.3,29.82,SSW,202,15.0,27.0,58,0.00,SCT,,0.00,WeatherDisplay:10.37,2015-05-03 16:25:00,
2015-05-03 11:30:00,75.5,60.2,29.82,SSW,202,10.0,20.0,59,0.00,SCT,,0.00,WeatherDisplay:10.37,2015-05-03 16:30:00,
2015-05-03 11:35:00,75.8,59.0,29.82,SSW,198,15.0,20.0,56,0.00,SCT,,0.00,WeatherDisplay:10.37,2015-05-03 16:35:00,
2015-05-03 11:40:00,76.1,59.8,29.82,SSW,201,12.0,21.0,57,0.00,SCT,,0.00,WeatherDisplay:10.37,2015-05-03 16:40:00,
2015-05-03 11:45:00,76.4,60.0,29.82,SSW,195,12.0,20.0,57,0.00,SCT,,0.00,WeatherDisplay:10.37,2015-05-03 16:45:00,
2015-05-03 11:50:00,76.5,59.6,29.82,SSW,199,14.0,24.0,56,0.00,SCT,,0.00,WeatherDisplay:10.37,2015-05-03 16:50:00,
2015-05-03 12:00:00,77.1,59.7,29.81,SSW,194,10.0,26.0,55,0.00,SCT,,0.00,WeatherDisplay:10.37,2015-05-03 17:00:00,
2015-05-03 12:05:00,77.3,60.4,29.81,SSW,198,9.0,20.0,56,0.00,SCT,,0.00,WeatherDisplay:10.37,2015-05-03 17:05:00,
2015-05-03 12:10:00,77.6,59.6,29.81,SSW,196,13.0,22.0,54,0.00,SCT,,0.00,WeatherDisplay:10.37,2015-05-03 17:10:00,
2015-05-03 12:15:00,77.8,60.3,29.81,South,191,13.0,29.0,55,0.00,SCT,,0.00,WeatherDisplay:10.37,2015-05-03 17:15:00,
2015-05-03 12:20:00,77.8,59.8,29.81,South,189,14.0,23.0,54,0.00,SCT,,0.00,WeatherDisplay:10.37,2015-05-03 17:20:00,
2015-05-03 12:25:00,78.1,60.1,29.81,South,190,9.0,20.0,54,0.00,SCT,,0.00,WeatherDisplay:10.37,2015-05-03 17:25:00,
2015-05-03 12:30:00,78.5,60.5,29.81,SSW,195,12.0,21.0,54,0.00,SCT,,0.00,WeatherDisplay:10.37,2015-05-03 17:30:00,
2015-05-03 12:40:00,78.7,59.6,29.80,SSW,193,12.0,21.0,52,0.00,SCT,,0.00,WeatherDisplay:10.37,2015-05-03 17:40:00,
2015-05-03 12:50:00,78.1,59.6,29.80,SSW,197,12.0,22.0,53,0.00,SCT,,0.00,WeatherDisplay:10.37,2015-05-03 17:50:00,
2015-05-03 12:55:00,78.4,59.9,29.80,SSW,198,14.0,23.0,53,0.00,SCT,,0.00,WeatherDisplay:10.37,2015-05-03 17:55:00,
2015-05-03 13:00:00,78.7,60.1,29.80,SSW,207,12.0,22.0,53,0.00,SCT,,0.00,WeatherDisplay:10.37,2015-05-03 18:00:00,
2015-05-03 13:10:00,79.5,60.3,29.80,SSW,193,14.0,21.0,52,0.00,SCT,,0.00,WeatherDisplay:10.37,2015-05-03 18:10:00,
2015-05-03 13:15:00,79.6,61.5,29.79,SSW,192,7.0,20.0,54,0.00,SCT,,0.00,WeatherDisplay:10.37,2015-05-03 18:15:00,
2015-05-03 13:20:00,80.3,61.1,29.79,SSW,195,12.0,20.0,52,0.00,SCT,,0.00,WeatherDisplay:10.37,2015-05-03 18:20:00,
2015-05-03 13:25:00,80.7,60.9,29.79,SSW,196,12.0,22.0,51,0.00,SCT,,0.00,WeatherDisplay:10.37,2015-05-03 18:25:00,
2015-05-03 13:30:00,80.4,60.6,29.79,South,189,13.0,24.0,51,0.00,SCT,,0.00,WeatherDisplay:10.37,2015-05-03 18:30:00,
2015-05-03 13:35:00,80.5,60.1,29.79,SSW,199,12.0,20.0,50,0.00,SCT,,0.00,WeatherDisplay:10.37,2015-05-03 18:35:00,
2015-05-03 13:40:00,80.6,60.8,29.79,SSW,201,10.0,21.0,51,0.00,SCT,,0.00,WeatherDisplay:10.37,2015-05-03 18:40:00,
2015-05-03 13:50:00,80.4,60.1,29.80,SSW,195,13.0,24.0,50,0.00,SCT,,0.00,WeatherDisplay:10.37,2015-05-03 18:50:00,
2015-05-03 14:00:00,80.3,60.0,29.80,SSW,195,9.0,23.0,50,0.00,SCT,,0.00,WeatherDisplay:10.37,2015-05-03 19:00:00,
2015-05-03 14:10:00,80.7,60.3,29.80,SSW,197,13.0,17.0,50,0.00,SCT,,0.00,WeatherDisplay:10.37,2015-05-03 19:10:00,
2015-05-03 14:15:00,80.7,60.9,29.79,SSW,204,13.0,21.0,51,0.00,SCT,,0.00,WeatherDisplay:10.37,2015-05-03 19:15:00,
2015-05-03 14:20:00,80.4,59.5,29.79,SSW,198,16.0,33.0,49,0.00,SCT,,0.00,WeatherDisplay:10.37,2015-05-03 19:20:00,
2015-05-03 14:25:00,80.4,59.5,29.79,SSW,202,14.0,33.0,49,0.00,SCT,,0.00,WeatherDisplay:10.37,2015-05-03 19:25:00,
2015-05-03 14:30:00,80.2,59.9,29.79,SSW,206,14.0,29.0,50,0.00,SCT,,0.00,WeatherDisplay:10.37,2015-05-03 19:30:00,
2015-05-03 14:35:00,80.6,60.2,29.79,SSW,198,15.0,24.0,50,0.00,SCT,,0.00,WeatherDisplay:10.37,2015-05-03 19:35:00,
2015-05-03 14:40:00,80.6,60.3,29.79,SSW,198,12.0,26.0,50,0.00,SCT,,0.00,WeatherDisplay:10.37,2015-05-03 19:40:00,
2015-05-03 14:50:00,80.6,60.8,29.78,South,188,10.0,20.0,51,0.00,SCT,,0.00,WeatherDisplay:10.37,2015-05-03 19:50:00,
2015-05-03 14:55:00,81.1,61.9,29.78,South,184,9.0,16.0,52,0.00,SCT,,0.00,WeatherDisplay:10.37,2015-05-03 19:55:00,
2015-05-03 15:00:00,81.7,61.3,29.78,South,186,10.0,21.0,50,0.00,SCT,,0.00,WeatherDisplay:10.37,2015-05-03 20:00:00,
2015-05-03 15:10:00,82.0,61.0,29.78,SSW,202,14.0,20.0,49,0.00,BKN,,0.00,WeatherDisplay:10.37,2015-05-03 20:10:00,
2015-05-03 15:15:00,81.8,61.4,29.78,SSW,201,7.0,16.0,50,0.00,BKN,,0.00,WeatherDisplay:10.37,2015-05-03 20:15:00,
2015-05-03 15:20:00,81.6,61.2,29.78,South,183,15.0,23.0,50,0.00,BKN,,0.00,WeatherDisplay:10.37,2015-05-03 20:20:00,
2015-05-03 15:25:00,81.6,61.2,29.78,South,179,12.0,20.0,50,0.00,BKN,,0.00,WeatherDisplay:10.37,2015-05-03 20:25:00,
2015-05-03 15:30:00,81.5,61.6,29.78,South,183,10.0,24.0,51,0.00,BKN,,0.00,WeatherDisplay:10.37,2015-05-03 20:30:00,
2015-05-03 15:40:00,81.7,60.7,29.78,South,191,12.0,23.0,49,0.00,BKN,,0.00,WeatherDisplay:10.37,2015-05-03 20:40:00,
2015-05-03 15:50:00,81.2,61.3,29.78,SSW,206,8.0,17.0,51,0.00,BKN,,0.00,WeatherDisplay:10.37,2015-05-03 20:50:00,
2015-05-03 15:55:00,80.9,60.5,29.78,SSW,205,12.0,20.0,50,0.00,BKN,,0.00,WeatherDisplay:10.37,2015-05-03 20:55:00,
2015-05-03 16:00:00,80.5,60.7,29.78,SSW,199,9.0,20.0,51,0.00,BKN,,0.00,WeatherDisplay:10.37,2015-05-03 21:00:00,
2015-05-03 16:05:00,80.5,60.7,29.78,SSW,192,9.0,20.0,51,0.00,BKN,,0.00,WeatherDisplay:10.37,2015-05-03 21:05:00,
2015-05-03 16:10:00,80.3,60.5,29.78,South,191,9.0,20.0,51,0.00,BKN,,0.00,WeatherDisplay:10.37,2015-05-03 21:10:00,
2015-05-03 16:20:00,80.5,61.8,29.78,South,189,7.0,15.0,53,0.00,BKN,,0.00,WeatherDisplay:10.37,2015-05-03 21:20:00,
2015-05-03 16:30:00,80.4,61.1,29.78,SSW,195,9.0,23.0,52,0.00,BKN,,0.00,WeatherDisplay:10.37,2015-05-03 21:30:00,
2015-05-03 16:40:00,80.8,61.0,29.78,SSW,196,12.0,20.0,51,0.00,BKN,,0.00,WeatherDisplay:10.37,2015-05-03 21:40:00,
2015-05-03 16:50:00,80.2,60.4,29.78,SSW,196,9.0,17.0,51,0.00,BKN,,0.00,WeatherDisplay:10.37,2015-05-03 21:50:00,
2015-05-03 17:00:00,79.8,61.1,29.78,South,184,13.0,20.0,53,0.00,BKN,,0.00,WeatherDisplay:10.37,2015-05-03 22:00:00,
2015-05-03 17:05:00,80.3,62.7,29.78,South,187,8.0,22.0,55,0.00,BKN,,0.00,WeatherDisplay:10.37,2015-05-03 22:05:00,
2015-05-03 17:10:00,81.0,62.2,29.78,South,190,12.0,20.0,53,0.00,BKN,,0.00,WeatherDisplay:10.37,2015-05-03 22:10:00,
2015-05-03 17:20:00,81.8,61.9,29.78,SSW,196,9.0,20.0,51,0.00,BKN,,0.00,WeatherDisplay:10.37,2015-05-03 22:20:00,
2015-05-03 17:25:00,82.1,62.2,29.78,SSW,199,8.0,15.0,51,0.00,BKN,,0.00,WeatherDisplay:10.37,2015-05-03 22:25:00,
2015-05-03 17:30:00,82.4,61.3,29.78,SSW,198,13.0,21.0,49,0.00,BKN,,0.00,WeatherDisplay:10.37,2015-05-03 22:30:00,
2015-05-03 17:35:00,81.9,60.9,29.78,SSW,199,10.0,20.0,49,0.00,BKN,,0.00,WeatherDisplay:10.37,2015-05-03 22:35:00,
2015-05-03 17:40:00,81.3,60.9,29.78,SSW,199,12.0,20.0,50,0.00,BKN,,0.00,WeatherDisplay:10.37,2015-05-03 22:40:00,
2015-05-03 17:50:00,81.6,60.6,29.78,SSW,198,12.0,23.0,49,0.00,BKN,,0.00,WeatherDisplay:10.37,2015-05-03 22:50:00,
2015-05-03 17:55:00,81.5,61.6,29.78,South,188,10.0,21.0,51,0.00,BKN,,0.00,WeatherDisplay:10.37,2015-05-03 22:55:00,
2015-05-03 18:00:00,81.3,61.4,29.78,South,187,14.0,20.0,51,0.00,BKN,,0.00,WeatherDisplay:10.37,2015-05-03 23:00:00,
2015-05-03 18:10:00,81.0,61.2,29.78,South,190,10.0,21.0,51,0.00,SCT,,0.00,WeatherDisplay:10.37,2015-05-03 23:10:00,
2015-05-03 18:20:00,80.9,61.0,29.78,SSW,195,10.0,20.0,51,0.00,SCT,,0.00,WeatherDisplay:10.37,2015-05-03 23:20:00,
2015-05-03 18:25:00,80.7,60.3,29.78,SSW,194,12.0,17.0,50,0.00,SCT,,0.00,WeatherDisplay:10.37,2015-05-03 23:25:00,
2015-05-03 18:30:00,80.5,60.7,29.78,SSW,196,12.0,20.0,51,0.00,SCT,,0.00,WeatherDisplay:10.37,2015-05-03 23:30:00,
2015-05-03 18:35:00,80.3,60.5,29.78,SSW,192,10.0,20.0,51,0.00,SCT,,0.00,WeatherDisplay:10.37,2015-05-03 23:35:00,
2015-05-03 18:40:00,80.2,61.0,29.78,SSW,194,9.0,20.0,52,0.00,SCT,,0.00,WeatherDisplay:10.37,2015-05-03 23:40:00,
2015-05-03 18:45:00,80.0,60.8,29.78,South,185,10.0,21.0,52,0.00,SCT,,0.00,WeatherDisplay:10.37,2015-05-03 23:45:00,
2015-05-03 18:50:00,79.7,61.1,29.78,South,182,6.0,17.0,53,0.00,SCT,,0.00,WeatherDisplay:10.37,2015-05-03 23:50:00,
2015-05-03 18:55:00,79.6,61.5,29.78,South,181,8.0,17.0,54,0.00,SCT,,0.00,WeatherDisplay:10.37,2015-05-03 23:55:00,
2015-05-03 19:00:00,79.2,61.1,29.78,South,179,8.0,14.0,54,0.00,SCT,,0.00,WeatherDisplay:10.37,2015-05-04 00:00:00,
2015-05-03 19:05:00,78.9,61.4,29.79,South,180,8.0,16.0,55,0.00,BKN,,0.00,WeatherDisplay:10.37,2015-05-04 00:05:00,
2015-05-03 19:10:00,78.6,61.1,29.79,South,178,7.0,15.0,55,0.00,BKN,,0.00,WeatherDisplay:10.37,2015-05-04 00:10:00,
2015-05-03 19:20:00,78.2,61.2,29.79,South,184,8.0,17.0,56,0.00,BKN,,0.00,WeatherDisplay:10.37,2015-05-04 00:20:00,
2015-05-03 19:30:00,78.0,61.5,29.79,South,181,6.0,16.0,57,0.00,BKN,,0.00,WeatherDisplay:10.37,2015-05-04 00:30:00,
2015-05-03 19:35:00,77.9,61.4,29.79,South,183,8.0,15.0,57,0.00,BKN,,0.00,WeatherDisplay:10.37,2015-05-04 00:35:00,
2015-05-03 19:40:00,77.7,61.3,29.80,South,182,6.0,13.0,57,0.00,BKN,,0.00,WeatherDisplay:10.37,2015-05-04 00:40:00,
2015-05-03 19:45:00,77.4,61.0,29.80,South,176,6.0,15.0,57,0.00,BKN,,0.00,WeatherDisplay:10.37,2015-05-04 00:45:00,
2015-05-03 19:55:00,77.0,61.1,29.80,South,179,7.0,10.0,58,0.00,BKN,,0.00,WeatherDisplay:10.37,2015-05-04 00:55:00,
2015-05-03 20:00:00,76.7,61.3,29.80,South,184,6.0,12.0,59,0.00,BKN,,0.00,WeatherDisplay:10.37,2015-05-04 01:00:00,
2015-05-03 20:05:00,76.6,61.2,29.80,South,183,7.0,14.0,59,0.00,BKN,,0.00,WeatherDisplay:10.37,2015-05-04 01:05:00,
2015-05-03 20:10:00,76.5,61.1,29.80,South,188,10.0,17.0,59,0.00,BKN,,0.00,WeatherDisplay:10.37,2015-05-04 01:10:00,
2015-05-03 20:20:00,76.2,60.8,29.80,South,183,8.0,15.0,59,0.00,BKN,,0.00,WeatherDisplay:10.37,2015-05-04 01:20:00,
2015-05-03 20:30:00,75.8,60.9,29.80,South,187,7.0,20.0,60,0.00,BKN,,0.00,WeatherDisplay:10.37,2015-05-04 01:30:00,
2015-05-03 20:35:00,75.6,60.7,29.80,South,186,6.0,14.0,60,0.00,BKN,,0.00,WeatherDisplay:10.37,2015-05-04 01:35:00,
2015-05-03 20:40:00,75.3,60.9,29.80,South,185,8.0,18.0,61,0.00,BKN,,0.00,WeatherDisplay:10.37,2015-05-04 01:40:00,
2015-05-03 20:50:00,75.0,60.6,29.80,South,179,8.0,15.0,61,0.00,BKN,,0.00,WeatherDisplay:10.37,2015-05-04 01:50:00,
2015-05-03 20:55:00,75.0,60.6,29.80,South,180,8.0,15.0,61,0.00,BKN,,0.00,WeatherDisplay:10.37,2015-05-04 01:55:00,
2015-05-03 21:00:00,74.9,60.5,29.80,South,183,8.0,17.0,61,0.00,BKN,,0.00,WeatherDisplay:10.37,2015-05-04 02:00:00,
2015-05-03 21:10:00,74.7,60.8,29.80,South,190,9.0,15.0,62,0.00,BKN,,0.00,WeatherDisplay:10.37,2015-05-04 02:10:00,
2015-05-03 21:15:00,74.6,60.7,29.80,South,188,7.0,15.0,62,0.00,BKN,,0.00,WeatherDisplay:10.37,2015-05-04 02:15:00,
2015-05-03 21:20:00,74.3,60.9,29.80,South,181,6.0,13.0,63,0.00,BKN,,0.00,WeatherDisplay:10.37,2015-05-04 02:20:00,
2015-05-03 21:25:00,74.2,60.8,29.80,South,179,12.0,22.0,63,0.00,BKN,,0.00,WeatherDisplay:10.37,2015-05-04 02:25:00,
2015-05-03 21:30:00,74.1,60.7,29.81,South,181,7.0,14.0,63,0.00,BKN,,0.00,WeatherDisplay:10.37,2015-05-04 02:30:00,
2015-05-03 21:40:00,74.0,60.6,29.82,South,190,5.0,12.0,63,0.00,BKN,,0.00,WeatherDisplay:10.37,2015-05-04 02:40:00,
2015-05-03 21:50:00,74.0,60.6,29.83,South,188,5.0,12.0,63,0.00,BKN,,0.00,WeatherDisplay:10.37,2015-05-04 02:50:00,
2015-05-03 21:55:00,73.9,60.5,29.84,South,189,8.0,16.0,63,0.00,BKN,,0.00,WeatherDisplay:10.37,2015-05-04 02:55:00,
2015-05-03 22:00:00,73.9,60.5,29.84,SSW,192,7.0,12.0,63,0.00,BKN,,0.00,WeatherDisplay:10.37,2015-05-04 03:00:00,
2015-05-03 22:05:00,73.8,60.4,29.85,SSW,192,8.0,16.0,63,0.00,OVC,,0.00,WeatherDisplay:10.37,2015-05-04 03:05:00,
2015-05-03 22:10:00,73.8,60.4,29.85,SSW,192,5.0,10.0,63,0.00,OVC,,0.00,WeatherDisplay:10.37,2015-05-04 03:10:00,
2015-05-03 22:20:00,73.5,60.6,29.85,SSW,192,7.0,14.0,64,0.00,OVC,,0.00,WeatherDisplay:10.37,2015-05-04 03:20:00,
2015-05-03 22:30:00,73.3,60.4,29.85,South,191,8.0,13.0,64,0.00,OVC,,0.00,WeatherDisplay:10.37,2015-05-04 03:30:00,
2015-05-03 22:35:00,73.2,60.3,29.85,SSW,194,8.0,12.0,64,0.00,OVC,,0.00,WeatherDisplay:10.37,2015-05-04 03:35:00,
2015-05-03 22:40:00,73.1,60.6,29.86,SSW,194,5.0,10.0,65,0.00,OVC,,0.00,WeatherDisplay:10.37,2015-05-04 03:40:00,
2015-05-03 22:50:00,72.9,60.4,29.86,South,189,6.0,10.0,65,0.00,OVC,,0.00,WeatherDisplay:10.37,2015-05-04 03:50:00,
2015-05-03 23:00:00,72.7,60.3,29.87,South,187,6.0,12.0,65,0.00,OVC,,0.00,WeatherDisplay:10.37,2015-05-04 04:00:00,